This is the latest recevied weather packets stored in our database for station/object ANJALA. If no packets are shown the sender has not sent any weather packets the latest 10 day(s).
| Time | Temp. | Humidity | Pressure | Rain* | Wind** | Luminosity | Snow |
|---|---|---|---|---|---|---|---|
| 1788602688 | 15° C | 76% | - | 0 mm | - | - | - |
| 1788601487 | 16.11° C | 71% | - | 0 mm | - | - | - |
| 1788600288 | 15.56° C | 75% | - | 0 mm | - | - | - |
| 1788599089 | 15° C | 73% | - | 0 mm | - | - | - |
| 1788597889 | 15° C | 83% | - | 0 mm | - | - | - |
| 1788596691 | 13.89° C | 89% | - | 0 mm | - | - | - |
| 1788595487 | 13.33° C | 94% | - | 0 mm | - | - | - |
| 1788593087 | 11.67° C | 100% | - | 0 mm | - | - | - |
| 1788590688 | 11.11° C | 100% | - | 0 mm | - | - | - |
| 1788587088 | 9.44° C | 100% | - | 0 mm | - | - | - |
| 1788585887 | 8.33° C | 100% | - | 0 mm | - | - | - |
| 1788584687 | 7.78° C | 100% | - | 0 mm | - | - | - |
| 1788583488 | 7.22° C | 100% | - | 0 mm | - | - | - |
| 1788582287 | 6.67° C | 100% | - | 0 mm | - | - | - |
| 1788579906 | 7.78° C | 100% | - | 0 mm | - | - | - |
| 1788578686 | 7.22° C | 100% | - | 0 mm | - | - | - |
| 1788577486 | 7.22° C | 100% | - | 0 mm | - | - | - |
| 1788576287 | 7.22° C | 100% | - | 0 mm | - | - | - |
| 1788575088 | 7.22° C | 100% | - | 0 mm | - | - | - |
| 1788573887 | 8.33° C | 100% | - | 0 mm | - | - | - |
| 1788572688 | 8.33° C | 100% | - | 0 mm | - | - | - |
| 1788571276 | 8.33° C | 100% | - | 0 mm | - | - | - |
| 1788570288 | 8.33° C | 100% | - | 0 mm | - | - | - |
| 1788569087 | 7.78° C | 100% | - | 0 mm | - | - | - |
| 1788567888 | 7.78° C | 100% | - | 0 mm | - | - | - |
* Rain latest hour (hover to see other rain measurements)
** Current wind speed in m/s (hover to see current wind gust speed)